[[{"header":{"parameterUnit":"m.s-1","parameterCategory":1,"la1":30.2991,"la2":30.254,"lo1":-89.0895,"lo2":-89.0444,"dy":0.0017,"dx":0.0017,"nx":28,"ny":28,"refTime":"2026-01-31T03:00:00:Z","depth":0,"parameterNumber":2,"parameterNumberName":"U-component_of_WINDS"},"data":[0,0,0,0,0,0,0,0,0,0,0,0,0,0,0,0,0,0,0,0,0,0,0,0,0,0,0,0,0,0,0,0,0,0,0,0,0,0,0,0,0,0,0,0,0,0,0,0,0,0,0,0,0,0,0,0,0,0,4.4816,4.4816,0,4.4858,4.4859,4.4859,4.4819,4.4817,4.4816,4.4814,4.4856,4.4858,4.4861,0,0,0,0,0,0,0,0,0,0,0,0,0,4.4701,4.4703,4.4816,4.4816,4.4817,4.4858,4.4859,4.4859,4.4819,4.4817,4.4815,4.4813,4.4855,4.4858,4.4861,0,0,0,0,0,0,0,0,0,0,0,0,0,4.4748,4.4704,4.4816,4.4802,4.4801,4.4858,4.4859,4.4859,4.482,4.4817,4.4815,4.4813,4.4854,4.4857,4.4861,4.4933,0,0,4.4873,4.4875,0,0,0,0,0,0,0,0,4.4745,4.4752,4.4803,4.4803,4.4802,4.4831,4.4833,4.4884,4.482,4.4813,4.4814,4.4811,4.4849,4.4853,4.4866,4.4935,4.4937,4.4873,4.4876,4.4878,4.4879,0,0,0,0,0,0,0,4.4742,4.475,4.4832,4.4804,4.4803,4.4794,4.4798,4.4843,4.4844,4.4813,4.481,4.4816,4.4848,4.4863,4.4867,4.4937,4.4873,4.4877,4.4879,4.4881,4.507,4.5073,0,0,0,0,0,0,4.474,4.4747,4.4831,4.4834,4.4767,4.4798,4.4802,4.4824,4.4843,4.4844,4.4818,4.4814,4.4857,4.4863,4.4868,4.4955,4.4877,4.4881,4.4883,4.5067,4.5071,4.5073,0,0,0,0,0,0,4.4738,4.4748,4.4829,4.479,4.4799,4.4802,4.4827,4.4826,4.484,4.4847,4.4847,4.4832,4.4856,4.4863,4.4918,4.4956,4.4883,4.4886,4.5064,4.5068,4.5072,4.5128,0,0,0,0,0,0,4.4735,4.4747,4.4774,4.4791,4.4802,4.4878,4.4829,4.4829,4.4847,4.4843,4.486,4.4861,4.4854,4.4913,4.4922,4.496,4.4889,4.5061,4.5066,4.5071,4.5123,4.5134,4.5143,0,0,0,0,0,4.4731,4.4788,4.4776,4.4786,4.4836,4.4881,4.4887,4.4878,4.4851,4.4878,4.4883,4.486,4.4951,4.4918,4.4929,4.4968,4.5058,4.5064,4.507,4.5119,4.5132,4.5143,0,0,0,0,0,0,4.4774,4.4789,4.4777,4.484,4.486,4.4874,4.4908,4.4892,4.4919,4.4913,4.4901,4.4906,4.4965,4.4972,4.4936,4.504,4.5,4.5008,4.5033,4.5046,4.5055,4.5052,4.4893,0,0,0,0,0,4.4791,4.4827,4.4838,4.4894,4.4904,4.4905,4.4924,4.4916,4.4935,4.4943,4.4951,4.497,4.5003,4.5025,4.5055,4.5125,4.5128,4.5157,4.5167,4.5175,4.5182,4.5221,4.5235,4.5093,4.5093,4.5093,0,0,4.4827,4.484,4.4862,4.4903,4.4917,4.4954,4.4912,4.4952,4.498,4.4949,4.5002,4.5009,4.503,4.5093,4.5121,4.5101,4.5223,4.5183,4.5189,4.5192,4.5229,4.5242,4.5254,4.5098,4.5097,4.5096,0,0,4.491,4.4923,4.4972,4.4988,4.501,4.5011,4.5023,4.504,4.5044,4.5097,4.5075,4.5108,4.5165,4.5181,4.5197,4.5291,4.5271,4.5301,4.5352,4.539,4.5402,4.5411,4.5446,4.5458,4.5308,4.5308,4.5308,0,4.4951,4.5007,4.4998,4.5042,4.5061,4.5036,4.5086,4.5101,4.5132,4.5146,4.5123,4.5195,4.5207,4.5275,4.5298,4.5312,4.5325,4.5298,4.5401,4.541,4.542,4.5452,4.5465,4.5312,4.5311,4.5311,4.5311,0,4.5056,4.5096,4.5132,4.5164,4.5188,4.5234,4.5233,4.5257,4.5249,4.5252,4.5308,4.5322,4.5356,4.5372,4.5363,4.5439,4.5426,4.5402,4.5361,4.5437,4.5467,4.5479,4.5317,4.5315,4.5314,4.5313,0,0,4.5166,4.5196,4.5209,4.5224,4.5249,4.5279,4.5325,4.5359,4.5381,4.5404,4.5443,4.5493,4.5472,4.549,4.5483,4.5517,4.5592,4.5489,4.549,4.5508,4.5678,4.5695,4.571,4.558,4.5582,4.5584,4.5677,0,4.5251,4.5331,4.5326,4.5402,4.5439,4.5418,4.5458,4.5478,4.5483,4.5515,4.552,4.5556,4.5526,4.5537,4.5569,4.5576,4.5626,4.5569,4.5616,4.5618,4.5611,4.5726,4.5743,4.583,4.5688,4.569,4.5692,0,4.536,4.5389,4.5468,4.549,4.5505,4.5541,4.5573,4.5604,4.5627,4.5629,4.5651,4.5639,4.5686,4.5645,4.5711,4.5673,4.5692,4.5698,4.5702,4.5705,4.5659,4.5732,4.5857,4.587,4.571,4.5709,4.5707,0,4.5433,4.5491,4.5547,4.556,4.5587,4.5613,4.5625,4.5645,4.5667,4.5696,4.571,4.5744,4.5762,4.5788,4.5786,4.5757,4.5854,4.5812,4.5856,4.5856,4.5876,4.5875,4.6006,4.589,4.5889,4.5889,4.5889,0,4.5528,4.5577,4.558,4.5614,4.567,4.5665,4.572,4.5729,4.5748,4.5784,4.5768,4.5802,4.5798,4.5833,4.5832,4.5887,4.5895,4.5898,4.5897,4.5899,4.5899,4.5911,4.5905,4.5893,4.5892,4.5891,4.5891,0,4.5617,4.5621,4.5681,4.5702,4.5709,4.5749,4.5767,4.5799,4.5804,4.585,4.5861,4.5869,4.5909,4.591,4.5956,4.5955,4.6023,4.6015,4.6015,4.6014,4.6058,4.6054,4.6201,4.622,4.6092,4.6093,4.6094,0,4.5677,4.5715,4.5742,4.5765,4.5779,4.5817,4.584,4.5838,4.5862,4.5893,4.5922,4.5961,4.5992,4.6058,4.6067,4.6103,4.6096,4.6145,4.6101,4.6103,4.6097,4.6095,4.6099,4.6153,4.6155,4.6156,4.6157,0,4.5784,4.5785,4.5819,4.5855,4.5883,4.591,4.5936,4.5956,4.5957,4.5986,4.6027,4.6052,4.61,4.6139,4.6174,4.6187,4.6173,4.6171,4.6183,4.6186,4.6184,4.6186,4.6039,4.6167,4.6166,4.6166,4.6165,4.6165,4.5861,4.5894,4.5919,4.5958,4.5978,4.6003,4.6035,4.6045,4.608,4.612,4.6117,4.6163,4.6187,4.6233,4.6249,4.6286,4.6269,4.6287,4.6291,4.6295,4.63,4.618,4.6292,4.6292,4.6292,4.6292,4.6291,0,4.5967,4.5982,4.6019,4.6056,4.6087,4.6073,4.6101,4.6128,4.617,4.6194,4.6226,4.6275,4.6313,4.6328,4.6366,4.6392,4.6387,4.6402,4.64,4.6404,4.6313,4.6299,4.6406,4.6406,4.6406,4.6406,4.6406,4.6406,4.6026,4.6082,4.6087,4.6154,4.6169,4.6215,4.6233,4.6256,4.6276,4.6331,4.6364,4.6374,4.6394,4.6434,4.647,4.6473,4.6488,4.6506,4.6507,4.6421,4.641,4.6399,4.6385,4.6509,4.6509,4.6594,4.6595,4.6595]},{"header":{"parameterUnit":"m.s-1","parameterCategory":1,"la1":30.2991,"la2":30.254,"lo1":-89.0895,"lo2":-89.0444,"dy":0.0017,"dx":0.0017,"nx":28,"ny":28,"refTime":"2026-01-31T03:00:00:Z","depth":0,"parameterNumber":3,"parameterNumberName":"V-component_of_WINDS"},"data":[0,0,0,0,0,0,0,0,0,0,0,0,0,0,0,0,0,0,0,0,0,0,0,0,0,0,0,0,0,0,0,0,0,0,0,0,0,0,0,0,0,0,0,0,0,0,0,0,0,0,0,0,0,0,0,0,0,0,-9.1742,-9.1744,0,-9.193,-9.1933,-9.1935,-9.1903,-9.19,-9.1897,-9.1894,-9.2081,-9.2089,-9.2097,0,0,0,0,0,0,0,0,0,0,0,0,0,-9.1351,-9.1358,-9.1742,-9.1744,-9.1746,-9.193,-9.1933,-9.1935,-9.1904,-9.19,-9.1896,-9.1892,-9.2078,-9.2088,-9.2097,0,0,0,0,0,0,0,0,0,0,0,0,0,-9.1528,-9.1361,-9.1741,-9.1753,-9.1756,-9.193,-9.1933,-9.1936,-9.1905,-9.19,-9.1895,-9.1891,-9.2075,-9.2087,-9.2099,-9.227,0,0,-9.2135,-9.2141,0,0,0,0,0,0,0,0,-9.1518,-9.1542,-9.1749,-9.1753,-9.1756,-9.1889,-9.1863,-9.2048,-9.1906,-9.1848,-9.1894,-9.1888,-9.202,-9.2037,-9.2083,-9.2279,-9.2287,-9.2136,-9.2144,-9.2149,-9.2152,0,0,0,0,0,0,0,-9.1506,-9.1534,-9.1816,-9.1752,-9.1757,-9.1748,-9.1768,-9.1898,-9.1959,-9.1853,-9.1851,-9.1874,-9.2021,-9.2071,-9.2087,-9.229,-9.2136,-9.2147,-9.2154,-9.2159,-9.2639,-9.2644,0,0,0,0,0,0,-9.1491,-9.1524,-9.181,-9.1822,-9.1623,-9.1759,-9.1781,-9.1851,-9.1958,-9.1969,-9.1878,-9.1872,-9.2053,-9.2073,-9.2093,-9.2303,-9.2149,-9.216,-9.2167,-9.2634,-9.264,-9.2646,0,0,0,0,0,0,-9.1483,-9.1517,-9.1803,-9.1673,-9.1708,-9.1771,-9.185,-9.1857,-9.1907,-9.1977,-9.1987,-9.1918,-9.205,-9.2076,-9.2228,-9.2309,-9.2165,-9.2176,-9.2627,-9.2636,-9.2643,-9.2723,0,0,0,0,0,0,-9.1471,-9.1514,-9.158,-9.1675,-9.1716,-9.1935,-9.1855,-9.1864,-9.1928,-9.1922,-9.2017,-9.2028,-9.2048,-9.221,-9.224,-9.2323,-9.2186,-9.262,-9.2631,-9.2641,-9.2713,-9.2733,-9.275,0,0,0,0,0,-9.1458,-9.1593,-9.1584,-9.1619,-9.18,-9.194,-9.1963,-9.1986,-9.1935,-9.2002,-9.2048,-9.2025,-9.2295,-9.2226,-9.2259,-9.2347,-9.2615,-9.2628,-9.264,-9.2705,-9.2729,-9.2749,0,0,0,0,0,0,-9.1504,-9.1606,-9.1596,-9.1767,-9.1846,-9.1934,-9.202,-9.201,-9.2102,-9.2092,-9.2114,-9.2136,-9.229,-9.2333,-9.2254,-9.252,-9.2448,-9.2468,-9.2486,-9.2509,-9.2527,-9.2514,-9.2196,0,0,0,0,0,-9.1535,-9.1641,-9.1723,-9.1866,-9.1906,-9.1957,-9.2018,-9.2029,-9.211,-9.2142,-9.2199,-9.2277,-9.238,-9.2447,-9.2545,-9.2719,-9.274,-9.2796,-9.2815,-9.2829,-9.2846,-9.2943,-9.297,-9.2687,-9.2687,-9.2687,0,0,-9.1598,-9.1667,-9.1732,-9.1877,-9.1939,-9.2048,-9.1984,-9.2101,-9.2183,-9.2159,-9.2307,-9.2351,-9.244,-9.2604,-9.2679,-9.2645,-9.2929,-9.2845,-9.2856,-9.2865,-9.2959,-9.2986,-9.3009,-9.2696,-9.2694,-9.2693,0,0,-9.177,-9.1832,-9.1959,-9.2024,-9.212,-9.2153,-9.2183,-9.2275,-9.2304,-9.2453,-9.2439,-9.2535,-9.2711,-9.2776,-9.2831,-9.3031,-9.3014,-9.3062,-9.3157,-9.3252,-9.3274,-9.3294,-9.3366,-9.3392,-9.3079,-9.3079,-9.3079,0,-9.1836,-9.2001,-9.2025,-9.2146,-9.221,-9.2197,-9.2326,-9.2386,-9.2508,-9.2553,-9.2513,-9.2737,-9.2795,-9.2975,-9.3025,-9.307,-9.3105,-9.3051,-9.3269,-9.329,-9.3308,-9.3378,-9.3405,-9.3084,-9.3084,-9.3083,-9.3083,0,-9.2079,-9.2194,-9.2284,-9.2406,-9.2481,-9.2604,-9.2646,-9.2719,-9.2724,-9.2761,-9.2913,-9.2984,-9.3097,-9.3141,-9.3145,-9.3323,-9.3299,-9.3264,-9.3192,-9.334,-9.3406,-9.3433,-9.3092,-9.309,-9.3088,-9.3087,0,0,-9.2283,-9.2419,-9.2452,-9.2509,-9.2615,-9.2703,-9.2827,-9.294,-9.3003,-9.3088,-9.3192,-9.3343,-9.3313,-9.3377,-9.3388,-9.3472,-9.3627,-9.3427,-9.343,-9.3463,-9.3829,-9.3855,-9.3885,-9.3617,-9.3622,-9.3626,-9.3822,0,-9.2466,-9.2687,-9.2713,-9.2908,-9.3015,-9.3006,-9.3113,-9.319,-9.3228,-9.3324,-9.3365,-9.3473,-9.3424,-9.3463,-9.3545,-9.3591,-9.3701,-9.3577,-9.3713,-9.3718,-9.3692,-9.3919,-9.3946,-9.4127,-9.3847,-9.3852,-9.3855,0,-9.2708,-9.2804,-9.3011,-9.3105,-9.3151,-9.3248,-9.3355,-9.3447,-9.3533,-9.3556,-9.3629,-9.3631,-9.3758,-9.3681,-9.3857,-9.3772,-9.3829,-9.3861,-9.3868,-9.3882,-9.3796,-9.394,-9.4185,-9.4213,-9.3895,-9.3892,-9.3889,0,-9.2839,-9.3019,-9.3167,-9.3215,-9.3328,-9.3396,-9.3446,-9.3528,-9.3596,-9.3689,-9.3734,-9.3839,-9.3898,-9.3979,-9.401,-9.3951,-9.4185,-9.411,-9.4206,-9.4206,-9.4256,-9.4252,-9.4515,-9.4292,-9.4291,-9.4291,-9.429,0,-9.304,-9.3168,-9.3228,-9.3319,-9.3461,-9.349,-9.363,-9.3677,-9.375,-9.385,-9.3847,-9.394,-9.3975,-9.4073,-9.4097,-9.424,-9.4266,-9.4287,-9.4292,-9.4288,-9.4285,-9.4326,-9.4314,-9.4298,-9.4296,-9.4295,-9.4294,0,-9.321,-9.3255,-9.3416,-9.3511,-9.3538,-9.3639,-9.372,-9.3808,-9.3846,-9.3972,-9.4003,-9.4063,-9.4179,-9.4218,-9.4357,-9.4374,-9.454,-9.4534,-9.4512,-9.4513,-9.4608,-9.4599,-9.4906,-9.4948,-9.4696,-9.4699,-9.4701,0,-9.3336,-9.3434,-9.3541,-9.3609,-9.3662,-9.3771,-9.3841,-9.3873,-9.3946,-9.4054,-9.4129,-9.4245,-9.4339,-9.4525,-9.458,-9.4688,-9.4684,-9.4785,-9.47,-9.4694,-9.4687,-9.4681,-9.4692,-9.48,-9.4803,-9.4805,-9.4807,0,-9.3555,-9.3574,-9.3676,-9.3787,-9.3871,-9.3959,-9.4044,-9.4099,-9.4144,-9.4226,-9.4347,-9.442,-9.4565,-9.468,-9.4791,-9.484,-9.4832,-9.4833,-9.4862,-9.4858,-9.4842,-9.4854,-9.4556,-9.4826,-9.4824,-9.4823,-9.4822,-9.4821,-9.3708,-9.3796,-9.3886,-9.4,-9.4068,-9.4149,-9.4237,-9.4288,-9.4389,-9.4512,-9.4524,-9.4654,-9.474,-9.4887,-9.4943,-9.5045,-9.5016,-9.5056,-9.5067,-9.5077,-9.5085,-9.4826,-9.5064,-9.5064,-9.5063,-9.5063,-9.5063,0,-9.3928,-9.3987,-9.4092,-9.4213,-9.4303,-9.4289,-9.4383,-9.4459,-9.4575,-9.4657,-9.4751,-9.489,-9.5003,-9.5068,-9.518,-9.5249,-9.5248,-9.5278,-9.5273,-9.5285,-9.5103,-9.5068,-9.5277,-9.5277,-9.5277,-9.5277,-9.5277,-9.5277,-9.4054,-9.4203,-9.4232,-9.4415,-9.4472,-9.4601,-9.4657,-9.4731,-9.4797,-9.4953,-9.5048,-9.509,-9.5166,-9.5284,-9.5387,-9.5403,-9.5445,-9.5478,-9.5491,-9.532,-9.5298,-9.5277,-9.5244,-9.5487,-9.5487,-9.5665,-9.5667,-9.5668]}]]